Flag for Canada Weather past 2 weeks in Iqaluit, Nunavut, Canada

Now
27 °F

Broken clouds.


Feels Like: 14 °F
Forecast: 16 / 24 °F
Wind: 17 mph from North

Location: Iqaluit

Current Time: May 26, 2015 at 10:21:59 PM

Latest Report: May 26, 2015 at 9:00 PM


Visibility: 30 mi

Pressure: 29.73 "Hg

Humidity: 86%

Dew point: 23 °F

Location of IqaluitLocation

Historic Weather in Iqaluit — Graph

°F

Iqaluit temperature yesterday

Maximum temperature yesterday: 32 °F (at 1:00 PM)
Minimum temperature yesterday: 21 °F (at 11:00 PM)
Average temperature yesterday: 27 °F

Past Weeks' High & Low Weather Summary

 TemperatureHumidityPressure
High39 °F (May 16, 3:00 PM)93% (May 17, 7:00 AM)29.99 "Hg (May 17, 7:00 AM)
Low7 °F (May 14, 2:00 AM)54% (May 21, 11:00 AM)29.40 "Hg (May 24, 2:00 PM)
Average25 °F77%29.70 "Hg
* Reported May 11 9:00 PM — May 26 9:00 PM, Iqaluit, Weather by CustomWeather, © 2015

Note: Actual official high and low records may vary slightly from our data, if they occured in-between our weather recording intervals... More about our weather records

Advertising

Iqaluit weather history for previous 24 hours

 ConditionsComfort  
Time TempWeatherWind HumidityBarometerVisibility
9:00 PM
Tue, May 26
27 °FBroken clouds.17 mph86%29.73 "Hg30 mi
8:00 PM28 °FPartly sunny.17 mph74%29.72 "Hg30 mi
7:00 PM30 °FPartly sunny.15 mph69%29.69 "Hg30 mi
6:00 PM32 °FPartly sunny.16 mph69%29.67 "Hg30 mi
5:00 PM32 °FPartly sunny.14 mph64%29.65 "Hg15 mi
4:00 PM30 °FBroken clouds.7 mph75%29.64 "Hg12 mi
3:00 PM28 °FPartly sunny.7 mph80%29.63 "Hg8 mi
2:00 PM28 °FPartly sunny.7 mph74%29.62 "Hg20 mi
1:00 PM28 °FBroken clouds.7 mph80%29.61 "Hg10 mi
12:00 PM28 °FPartly sunny.8 mph80%29.61 "Hg7 mi
11:00 AM27 °FLight snow. Broken clouds.6 mph80%29.63 "Hg5 mi
10:00 AM23 °FLight snow. Ice fog.5 mph80%29.64 "Hg3 mi
9:00 AM25 °FMostly cloudy.3 mph69%29.65 "Hg12 mi
8:00 AM23 °FOvercast.2 mph74%29.66 "Hg12 mi
7:00 AM21 °FMostly cloudy.6 mph74%29.67 "Hg15 mi
6:00 AM19 °FPartly sunny.5 mph79%29.68 "Hg30 mi
5:00 AM19 °FPartly sunny.2 mph86%29.70 "Hg25 mi
4:00 AM19 °FPartly sunny.5 mph86%29.72 "Hg25 mi
3:00 AM21 °FOvercast.3 mph74%29.73 "Hg25 mi
2:00 AM21 °FPassing clouds.6 mph74%29.74 "Hg25 mi
1:00 AM21 °FPassing clouds.6 mph74%29.75 "Hg25 mi
12:00 AM21 °FMostly cloudy.10 mph68%29.76 "Hg25 mi
11:00 PM
Mon, May 25
21 °FBroken clouds.10 mph74%29.77 "Hg30 mi
10:00 PM23 °FBroken clouds.3 mph74%29.77 "Hg30 mi
Weather by CustomWeather, © 2015

See weather overviewHow to use our weather pages